Location: Marcé
(47.5801°N, 0.3280°W)
Time: 16:26:44
(UTC+02:00)

FENGYUN 1C DEB - Visible Passes

Search period start: 03 July 2022 00:00
Search period end: 13 July 2022 00:00
Orbit: 572 x 664 km, 99.1° (Epoch: 02 July)

Date Brightness Start Highest point End Pass type
(mag) Time Alt. Az. Time Alt. Az. Time Alt. Az.
06 Jul ? 22:35:55 10° N 22:39:21 23° WNW 22:42:41 10° WSW visible
07 Jul ? 22:52:55 10° NNW 22:55:42 17° WNW 22:58:26 10° W visible
08 Jul ? 23:10:13 10° NNW 23:12:00 12° NW 23:13:45 10° W visible
12 Jul ? 22:38:56 10° N 22:42:17 23° WNW 22:45:33 10° WSW visible
